This is the latest recevied weather packets stored in our database for station/object 4S6DRJ-13. If no packets are shown the sender has not sent any weather packets the latest 10 day(s).
| Time | Temp. | Humidity | Pressure | Rain* | Wind** | Luminosity | Snow |
|---|---|---|---|---|---|---|---|
| 1787659247 | 28.33° C | 83% | 1009.4 hPa | 0 mm | 0.45 m/s, 259° | 30 W/m² | - |
| 1787659185 | 28.33° C | 83% | 1009.2 hPa | 0 mm | 0.45 m/s, 229° | 32 W/m² | - |
| 1787659124 | 28.33° C | 83% | 1009.2 hPa | 0 mm | 0.89 m/s, 258° | 33 W/m² | - |
| 1787659063 | 28.33° C | 83% | 1009.2 hPa | 0 mm | 2.24 m/s, 352° | 34 W/m² | - |
| 1787659002 | 28.33° C | 83% | 1009.1 hPa | 0 mm | 1.34 m/s, 231° | 33 W/m² | - |
| 1787658941 | 28.33° C | 83% | 1009.2 hPa | 0 mm | 2.24 m/s, 225° | 30 W/m² | - |
| 1787658881 | 28.33° C | 83% | 1009.2 hPa | 0 mm | 0.45 m/s, 127° | 31 W/m² | - |
| 1787658820 | 28.33° C | 83% | 1009.2 hPa | 0 mm | 1.79 m/s, 284° | 28 W/m² | - |
| 1787658759 | 28.33° C | 82% | 1009.4 hPa | 0 mm | 0.89 m/s, 230° | 24 W/m² | - |
| 1787658697 | 28.33° C | 82% | 1009.3 hPa | 0 mm | 1.79 m/s, 249° | 21 W/m² | - |
| 1787658636 | 28.33° C | 82% | 1009.3 hPa | 0 mm | 1.79 m/s, 183° | 19 W/m² | - |
| 1787658575 | 28.33° C | 82% | 1009.4 hPa | 0 mm | 2.24 m/s, 203° | 19 W/m² | - |
| 1787658514 | 28.33° C | 82% | 1009.4 hPa | 0 mm | 2.24 m/s, 299° | 19 W/m² | - |
| 1787658453 | 28.33° C | 82% | 1009.4 hPa | 0 mm | 1.34 m/s, 333° | 20 W/m² | - |
| 1787658392 | 28.33° C | 82% | 1009.4 hPa | 0 mm | 1.34 m/s, 321° | 24 W/m² | - |
| 1787658331 | 28.33° C | 82% | 1009.4 hPa | 0 mm | 0.89 m/s, 238° | 26 W/m² | - |
| 1787658271 | 28.33° C | 82% | 1009.4 hPa | 0 mm | 1.79 m/s, 271° | 28 W/m² | - |
| 1787658210 | 28.33° C | 82% | 1009.4 hPa | 0 mm | 0.45 m/s, 214° | 28 W/m² | - |
| 1787658148 | 28.33° C | 82% | 1009.5 hPa | 0 mm | 1.34 m/s, 340° | 32 W/m² | - |
| 1787658087 | 28.33° C | 82% | 1009.3 hPa | 0 mm | 0.45 m/s, 215° | 36 W/m² | - |
| 1787658026 | 28.33° C | 82% | 1009.3 hPa | 0 mm | 1.34 m/s, 241° | 32 W/m² | - |
| 1787657966 | 28.33° C | 82% | 1009.2 hPa | 0 mm | 1.79 m/s, 205° | 34 W/m² | - |
| 1787657904 | 28.33° C | 82% | 1009.2 hPa | 0 mm | 1.79 m/s, 316° | 39 W/m² | - |
| 1787657843 | 28.33° C | 82% | 1009.3 hPa | 0 mm | 1.34 m/s, 230° | 45 W/m² | - |
| 1787657782 | 28.33° C | 82% | 1009.2 hPa | 0 mm | 0.89 m/s, 201° | 56 W/m² | - |
* Rain latest hour (hover to see other rain measurements)
** Current wind speed in m/s (hover to see current wind gust speed)